This demonstration page uses our WeatherBlox Daily Observations layout. Learn more.

Left ArrowRight Arrow

Hourly Observations for November 24, 2015

Temp ( °F °C ) Dew Point ( °F °C ) Humidity (%) Winds ( mph kmh ) Pressure ( in mb ) Visibility ( mi km ) Precip ( " mm )
12:51 am 00:51 Clear 40 4.4 25 -3.9 55 55 ESE 5 7 29.97 1015 10 16.0934 N/A
1:51 am 01:51 Clear 42 5.6 27 -2.8 55 55 SE 3 6 29.96 1015 10 16.0934 N/A
2:51 am 02:51 Clear 38 3.3 25 -3.9 60 60 N N/A 29.98 1015 10 16.0934 N/A
3:51 am 03:51 Clear 39 3.9 27 -2.8 62 62 SE 5 7 29.97 1015 10 16.0934 N/A
4:51 am 04:51 Clear 35 1.7 24 -4.4 64 64 SE 3 6 29.99 1016 10 16.0934 N/A
5:51 am 05:51 Clear 35 1.7 24 -4.4 64 64 N N/A 30.01 1016 10 16.0934 N/A
6:51 am 06:51 Clear 34 1.1 24 -4.4 67 67 N N/A 30.03 1017 10 16.0934 N/A
7:51 am 07:51 Sunny 43 6.1 27 -2.8 53 53 N N/A 30.05 1018 10 16.0934 N/A
8:51 am 08:51 Sunny 47 8.3 29 -1.7 50 50 SE 5 7 30.06 1018 10 16.0934 N/A
9:51 am 09:51 Sunny 57 13.9 29 -1.7 34 34 N N/A 30.04 1017 10 16.0934 N/A
10:51 am 10:51 Sunny 61 16.1 29 -1.7 30 30 S 9 15 30.04 1017 10 16.0934 N/A
11:51 am 11:51 Sunny 63 17.2 29 -1.7 28 28 SSW 5 7 30 1016 10 16.0934 N/A
12:51 pm 12:51 Sunny 67 19.4 28 -2.2 23 23 N N/A 29.95 1014 10 16.0934 N/A
1:51 pm 13:51 Sunny 70 21.1 27 -2.8 20 20 N N/A 29.9 1013 10 16.0934 N/A
2:51 pm 14:51 Sunny 72 22.2 25 -3.9 17 17 VRB 6 9 29.88 1012 10 16.0934 N/A
3:51 pm 15:51 Sunny 71 21.7 26 -3.3 19 19 VRB 3 6 29.88 1012 10 16.0934 N/A
4:51 pm 16:51 Sunny 68 20 28 -2.2 22 22 W 5 7 29.89 1012 10 16.0934 N/A
5:51 pm 17:51 Clear 58 14.4 27 -2.8 31 31 NW 8 13 29.9 1013 10 16.0934 N/A
6:51 pm 18:51 Clear 56 13.3 27 -2.8 33 33 NNW 7 11 29.91 1013 10 16.0934 N/A
7:51 pm 19:51 Clear 52 11.1 28 -2.2 40 40 SE 3 6 29.9 1013 10 16.0934 N/A
8:51 pm 20:51 Clear 48 8.9 28 -2.2 46 46 E 6 9 29.91 1013 10 16.0934 N/A
9:51 pm 21:51 Clear 48 8.9 28 -2.2 46 46 ESE 5 7 29.88 1012 10 16.0934 N/A
10:51 pm 22:51 Clear 45 7.2 27 -2.8 49 49 SE 5 7 29.88 1012 10 16.0934 N/A
11:51 pm 23:51 Clear 44 6.7 26 -3.3 49 49 SSE 7 11 29.87 1012 10 16.0934 N/A

Powered by AerisWeather